QPF
0.01 0.01 0.02 0.03 0.02 0.01 0.01 0.02 0.01 0.02 0.03 0.02 0.01 0.02 0.01 0.01 0.01 0.01 0.01 0.01 0.00 0.00 0.01 0.03 0.04 0.01 0.02 0.02 0.02 0.03 0.03 0.02 0.02 0.01 0.01 0.01 0.00 0.00 0.00 0.00 0.00 0.00 0.00
0.02 0.01 0.01 0.02 0.02 0.02 0.01 0.02 0.02 0.02 0.03 0.02 0.01 0.01 0.01 0.01 0.01 0.01 0.01 0.00 0.01 0.01 0.01 0.02 0.02 0.01 0.02 0.02 0.03 0.04 0.03 0.02 0.01 0.01 0.01 0.00 0.00 0.00 0.00 0.00 0.00 0.00 0.00
0.01 0.01 0.01 0.01 0.02 0.02 0.02 0.02 0.02 0.02 0.03 0.03 0.01 0.01 0.00 0.01 0.00 0.00 0.00 0.01 0.01 0.01 0.01 0.01 0.01 0.02 0.04 0.03 0.03 0.03 0.02 0.02 0.02 0.01 0.01 0.00 0.00 0.00 0.00 0.00 0.00 0.00 0.00
0.01 0.01 0.01 0.01 0.01 0.02 0.01 0.02 0.02 0.02 0.03 0.02 0.01 0.01 0.00 0.00 0.00 0.01 0.01 0.01 0.01 0.01 0.01 0.01 0.01 0.02 0.03 0.04 0.02 0.01 0.01 0.01 0.02 0.01 0.01 0.01 0.00 0.00 0.01 0.01 0.01 0.00 0.00
0.00 0.01 0.01 0.01 0.01 0.01 0.01 0.01 0.02 0.02 0.02 0.01 0.01 0.01 0.01 0.01 0.01 0.02 0.01 0.01 0.01 0.01 0.01 0.01 0.00 0.01 0.01 0.02 0.01 0.02 0.02 0.01 0.01 0.01 0.01 0.01 0.01 0.00 0.01 0.01 0.01 0.01 0.00
0.00 0.01 0.01 0.01 0.01 0.01 0.01 0.00 0.01 0.01 0.02 0.01 0.01 0.01 0.01 0.01 0.02 0.02 0.01 0.01 0.01 0.01 0.02 0.00 0.00 0.01 0.00 0.00 0.00 0.01 0.01 0.01 0.01 0.01 0.01 0.01 0.01 0.01 0.01 0.01 0.01 0.01 0.01
0.01 0.01 0.01 0.01 0.01 0.01 0.01 0.01 0.01 0.01 0.02 0.02 0.01 0.01 0.02 0.02 0.01 0.01 0.02 0.01 0.01 0.02 0.02 0.01 0.01 0.01 0.00 0.00 0.00 0.00 0.00 0.00 0.00 0.01 0.02 0.02 0.02 0.02 0.02 0.02 0.02 0.02 0.01
0.02 0.01 0.01 0.01 0.02 0.01 0.01 0.01 0.01 0.01 0.02 0.02 0.02 0.02 0.02 0.01 0.01 0.01 0.01 0.01 0.01 0.02 0.02 0.02 0.01 0.01 0.01 0.00 0.00 0.00 0.00 0.00 0.00 0.00 0.01 0.01 0.01 0.02 0.01 0.01 0.02 0.03 0.02
0.02 0.01 0.01 0.01 0.02 0.02 0.02 0.01 0.01 0.02 0.02 0.01 0.02 0.02 0.02 0.01 0.01 0.01 0.01 0.01 0.02 0.01 0.01 0.02 0.01 0.00 0.00 0.00 0.00 0.00 0.00 0.01 0.00 0.00 0.00 0.01 0.01 0.01 0.00 0.00 0.01 0.02 0.02
0.01 0.01 0.01 0.01 0.01 0.01 0.02 0.02 0.02 0.02 0.02 0.02 0.02 0.01 0.01 0.01 0.01 0.00 0.00 0.01 0.02 0.01 0.01 0.01 0.01 0.01 0.00 0.00 0.00 0.00 0.01 0.01 0.00 0.00 0.00 0.00 0.01 0.01 0.01 0.00 0.01 0.01 0.02
0.01 0.02 0.02 0.02 0.01 0.01 0.01 0.01 0.01 0.01 0.02 0.01 0.02 0.01 0.02 0.01 0.01 0.01 0.01 0.01 0.02 0.01 0.01 0.01 0.01 0.00 0.00 0.00 0.00 0.00 0.00 0.01 0.00 0.00 0.00 0.00 0.00 0.01 0.00 0.00 0.00 0.01 0.02
0.01 0.01 0.02 0.02 0.01 0.01 0.02 0.01 0.02 0.02 0.03 0.04 0.03 0.03 0.02 0.02 0.01 0.01 0.01 0.01 0.02 0.01 0.01 0.01 0.01 0.01 0.00 0.00 0.00 0.00 0.00 0.01 0.00 0.00 0.00 0.00 0.00 0.00 0.00 0.00 0.00 0.00 0.00
0.01 0.01 0.01 0.01 0.01 0.01 0.01 0.01 0.01 0.01 0.02 0.04 0.04 0.03 0.02 0.02 0.02 0.02 0.01 0.01 0.01 0.01 0.01 0.01 0.01 0.01 0.00 0.00 0.00 0.00 0.00 0.00 0.00 0.00 0.01 0.01 0.01 0.01 0.01 0.01 0.01 0.01 0.01
0.01 0.01 0.01 0.01 0.01 0.01 0.01 0.01 0.01 0.01 0.01 0.02 0.03 0.02 0.02 0.02 0.01 0.01 0.01 0.01 0.01 0.01 0.01 0.01 0.01 0.00 0.00 0.00 0.00 0.00 0.00 0.00 0.01 0.01 0.02 0.01 0.01 0.01 0.01 0.01 0.01 0.01 0.01
0.01 0.01 0.02 0.01 0.01 0.01 0.01 0.02 0.02 0.01 0.02 0.02 0.02 0.02 0.02 0.02 0.02 0.02 0.02 0.01 0.01 0.01 0.01 0.01 0.00 0.00 0.00 0.00 0.00 0.00 0.00 0.00 0.00 0.01 0.01 0.00 0.00 0.00 0.01 0.01 0.01 0.01 0.01
0.01 0.01 0.02 0.02 0.01 0.01 0.01 0.02 0.04 0.05 0.04 0.03 0.02 0.02 0.02 0.02 0.02 0.03 0.02 0.02 0.02 0.01 0.01 0.00 0.00 0.00 0.00 0.00 0.00 0.00 0.01 0.01 0.00 0.01 0.01 0.00 0.00 0.01 0.01 0.01 0.01 0.01 0.01
0.00 0.01 0.01 0.01 0.01 0.01 0.01 0.02 0.02 0.03 0.03 0.03 0.02 0.02 0.02 0.01 0.02 0.02 0.02 0.01 0.01 0.01 0.00 0.00 0.00 0.01 0.01 0.00 0.01 0.01 0.01 0.01 0.01 0.01 0.01 0.01 0.01 0.01 0.01 0.01 0.01 0.01 0.00
0.00 0.01 0.01 0.01 0.01 0.01 0.01 0.01 0.01 0.02 0.02 0.01 0.02 0.02 0.02 0.02 0.01 0.01 0.01 0.01 0.01 0.01 0.01 0.01 0.01 0.01 0.01 0.02 0.02 0.02 0.02 0.03 0.02 0.01 0.01 0.01 0.01 0.01 0.01 0.01 0.01 0.00 0.00
0.01 0.01 0.01 0.01 0.01 0.00 0.00 0.01 0.01 0.01 0.02 0.01 0.01 0.02 0.02 0.02 0.02 0.01 0.01 0.01 0.01 0.01 0.01 0.02 0.02 0.03 0.02 0.02 0.02 0.02 0.02 0.03 0.04 0.03 0.02 0.02 0.02 0.01 0.01 0.01 0.01 0.01 0.01
0.01 0.01 0.01 0.02 0.02 0.00 0.00 0.01 0.01 0.01 0.01 0.02 0.01 0.02 0.03 0.02 0.01 0.01 0.01 0.01 0.01 0.01 0.01 0.01 0.02 0.02 0.02 0.02 0.03 0.03 0.03 0.04 0.04 0.04 0.04 0.05 0.04 0.04 0.03 0.03 0.02 0.02 0.01
0.01 0.01 0.01 0.02 0.02 0.01 0.00 0.01 0.01 0.01 0.01 0.02 0.02 0.03 0.03 0.02 0.02 0.02 0.02 0.02 0.02 0.02 0.02 0.02 0.02 0.02 0.02 0.02 0.02 0.02 0.02 0.02 0.03 0.04 0.05 0.05 0.05 0.04 0.04 0.03 0.02 0.02 0.02
0.01 0.02 0.02 0.01 0.02 0.01 0.01 0.01 0.01 0.01 0.01 0.02 0.03 0.04 0.03 0.02 0.02 0.02 0.02 0.02 0.02 0.02 0.02 0.02 0.02 0.01 0.01 0.01 0.02 0.02 0.02 0.03 0.04 0.04 0.04 0.04 0.04 0.03 0.03 0.03 0.02 0.02 0.02
0.01 0.02 0.02 0.02 0.02 0.02 0.02 0.01 0.01 0.01 0.02 0.03 0.02 0.03 0.02 0.02 0.02 0.02 0.02 0.03 0.03 0.03 0.03 0.03 0.02 0.02 0.02 0.02 0.02 0.02 0.03 0.03 0.03 0.04 0.03 0.03 0.03 0.03 0.03 0.03 0.03 0.03 0.03
0.01 0.02 0.02 0.02 0.02 0.02 0.01 0.01 0.02 0.02 0.02 0.03 0.02 0.02 0.02 0.02 0.02 0.02 0.02 0.03 0.03 0.03 0.03 0.03 0.02 0.02 0.02 0.02 0.02 0.02 0.02 0.02 0.02 0.02 0.03 0.03 0.03 0.03 0.04 0.04 0.04 0.04 0.04
0.02 0.02 0.02 0.03 0.03 0.03 0.02 0.02 0.02 0.02 0.02 0.02 0.02 0.02 0.01 0.02 0.02 0.02 0.02 0.02 0.02 0.02 0.02 0.02 0.02 0.01 0.01 0.01 0.01 0.01 0.01 0.01 0.01 0.01 0.01 0.02 0.02 0.03 0.04 0.04 0.05 0.05 0.05
0.03 0.03 0.03 0.03 0.03 0.03 0.03 0.02 0.02 0.02 0.02 0.02 0.03 0.03 0.02 0.02 0.02 0.02 0.01 0.01 0.02 0.02 0.02 0.02 0.01 0.01 0.01 0.01 0.01 0.02 0.02 0.02 0.02 0.02 0.02 0.02 0.03 0.04 0.04 0.05 0.05 0.05 0.05
MSLP
1017.12 1017.25 1017.39 1017.52 1017.62 1017.67 1017.68 1017.66 1017.62 1017.58 1017.56 1017.57 1017.62 1017.71 1017.81 1017.91 1018.00 1018.07 1018.10 1018.12 1018.12 1018.12 1018.14 1018.20 1018.29 1018.43 1018.60 1018.82 1019.07 1019.34 1019.63 1019.95 1020.29 1020.65 1021.03 1021.44 1021.85 1022.26 1022.64 1022.99 1023.28 1023.51 1023.65
1017.33 1017.46 1017.59 1017.69 1017.75 1017.77 1017.75 1017.69 1017.62 1017.56 1017.54 1017.56 1017.63 1017.75 1017.90 1018.06 1018.21 1018.34 1018.43 1018.49 1018.52 1018.53 1018.54 1018.56 1018.61 1018.69 1018.81 1018.97 1019.16 1019.39 1019.66 1019.95 1020.28 1020.63 1021.02 1021.44 1021.87 1022.30 1022.72 1023.12 1023.48 1023.78 1024.00
1017.55 1017.69 1017.81 1017.90 1017.94 1017.93 1017.87 1017.79 1017.70 1017.63 1017.60 1017.63 1017.71 1017.86 1018.04 1018.24 1018.44 1018.62 1018.75 1018.84 1018.90 1018.92 1018.92 1018.93 1018.95 1019.00 1019.08 1019.20 1019.36 1019.56 1019.79 1020.06 1020.36 1020.69 1021.06 1021.45 1021.87 1022.29 1022.73 1023.15 1023.55 1023.91 1024.22
1017.73 1017.90 1018.03 1018.13 1018.17 1018.15 1018.08 1017.99 1017.90 1017.82 1017.79 1017.82 1017.92 1018.07 1018.27 1018.48 1018.70 1018.89 1019.04 1019.15 1019.21 1019.24 1019.25 1019.25 1019.26 1019.29 1019.36 1019.47 1019.61 1019.79 1020.00 1020.23 1020.50 1020.79 1021.11 1021.46 1021.83 1022.22 1022.63 1023.05 1023.47 1023.88 1024.26
1017.84 1018.03 1018.20 1018.32 1018.38 1018.39 1018.35 1018.27 1018.20 1018.14 1018.12 1018.16 1018.25 1018.40 1018.58 1018.78 1018.98 1019.15 1019.29 1019.38 1019.43 1019.45 1019.46 1019.46 1019.47 1019.51 1019.58 1019.69 1019.84 1020.01 1020.21 1020.42 1020.65 1020.90 1021.16 1021.43 1021.74 1022.07 1022.44 1022.84 1023.26 1023.69 1024.13
1017.82 1018.04 1018.25 1018.41 1018.52 1018.58 1018.60 1018.58 1018.55 1018.53 1018.54 1018.59 1018.67 1018.80 1018.95 1019.10 1019.25 1019.37 1019.46 1019.52 1019.54 1019.54 1019.53 1019.53 1019.56 1019.61 1019.70 1019.83 1019.99 1020.18 1020.37 1020.57 1020.76 1020.96 1021.15 1021.36 1021.59 1021.85 1022.15 1022.51 1022.91 1023.35 1023.83
1017.65 1017.90 1018.14 1018.36 1018.54 1018.67 1018.77 1018.83 1018.88 1018.92 1018.97 1019.03 1019.11 1019.20 1019.31 1019.40 1019.48 1019.54 1019.56 1019.56 1019.54 1019.51 1019.49 1019.49 1019.52 1019.60 1019.71 1019.87 1020.05 1020.25 1020.45 1020.63 1020.80 1020.95 1021.08 1021.21 1021.36 1021.55 1021.79 1022.09 1022.46 1022.89 1023.39
1017.34 1017.59 1017.87 1018.14 1018.39 1018.61 1018.80 1018.95 1019.08 1019.20 1019.29 1019.38 1019.46 1019.53 1019.59 1019.62 1019.63 1019.61 1019.57 1019.51 1019.44 1019.39 1019.35 1019.35 1019.39 1019.48 1019.63 1019.80 1020.01 1020.22 1020.42 1020.60 1020.74 1020.85 1020.94 1021.01 1021.10 1021.21 1021.38 1021.63 1021.95 1022.37 1022.85
1016.94 1017.18 1017.47 1017.77 1018.08 1018.37 1018.65 1018.90 1019.11 1019.29 1019.44 1019.56 1019.64 1019.70 1019.71 1019.70 1019.65 1019.58 1019.49 1019.39 1019.29 1019.21 1019.17 1019.16 1019.22 1019.32 1019.47 1019.67 1019.88 1020.09 1020.29 1020.46 1020.59 1020.68 1020.73 1020.76 1020.80 1020.87 1020.98 1021.17 1021.45 1021.82 1022.29
1016.54 1016.75 1017.02 1017.33 1017.67 1018.01 1018.35 1018.66 1018.94 1019.18 1019.37 1019.51 1019.61 1019.65 1019.65 1019.61 1019.54 1019.44 1019.32 1019.21 1019.10 1019.02 1018.98 1018.98 1019.03 1019.14 1019.29 1019.47 1019.68 1019.88 1020.07 1020.23 1020.35 1020.43 1020.47 1020.48 1020.50 1020.53 1020.62 1020.76 1021.00 1021.32 1021.74
1016.24 1016.38 1016.61 1016.90 1017.24 1017.60 1017.96 1018.31 1018.62 1018.88 1019.10 1019.25 1019.35 1019.39 1019.39 1019.35 1019.27 1019.18 1019.08 1018.98 1018.89 1018.82 1018.79 1018.80 1018.85 1018.94 1019.07 1019.23 1019.41 1019.59 1019.75 1019.90 1020.01 1020.09 1020.13 1020.16 1020.18 1020.21 1020.29 1020.41 1020.61 1020.89 1021.26
1016.12 1016.19 1016.36 1016.60 1016.90 1017.23 1017.57 1017.90 1018.20 1018.46 1018.67 1018.82 1018.91 1018.96 1018.97 1018.94 1018.89 1018.83 1018.77 1018.71 1018.65 1018.62 1018.61 1018.62 1018.65 1018.72 1018.81 1018.92 1019.05 1019.18 1019.31 1019.44 1019.55 1019.63 1019.71 1019.76 1019.82 1019.88 1019.97 1020.11 1020.29 1020.53 1020.85
1016.24 1016.24 1016.33 1016.50 1016.73 1016.99 1017.28 1017.55 1017.80 1018.02 1018.19 1018.31 1018.38 1018.42 1018.44 1018.43 1018.42 1018.41 1018.40 1018.39 1018.39 1018.39 1018.39 1018.40 1018.41 1018.43 1018.46 1018.51 1018.57 1018.64 1018.73 1018.82 1018.93 1019.03 1019.15 1019.25 1019.37 1019.49 1019.63 1019.79 1019.98 1020.21 1020.48
1016.63 1016.55 1016.57 1016.65 1016.79 1016.97 1017.16 1017.35 1017.52 1017.65 1017.75 1017.82 1017.86 1017.88 1017.89 1017.91 1017.93 1017.96 1018.00 1018.04 1018.08 1018.11 1018.11 1018.11 1018.08 1018.04 1018.00 1017.96 1017.94 1017.94 1017.97 1018.03 1018.13 1018.26 1018.41 1018.59 1018.78 1018.97 1019.18 1019.39 1019.61 1019.85 1020.11
1017.25 1017.12 1017.06 1017.07 1017.11 1017.19 1017.28 1017.36 1017.42 1017.45 1017.46 1017.46 1017.44 1017.42 1017.42 1017.43 1017.47 1017.53 1017.60 1017.67 1017.73 1017.77 1017.76 1017.72 1017.64 1017.53 1017.40 1017.27 1017.16 1017.08 1017.05 1017.07 1017.16 1017.30 1017.50 1017.73 1017.99 1018.27 1018.55 1018.83 1019.11 1019.38 1019.66
1018.05 1017.88 1017.77 1017.70 1017.67 1017.64 1017.62 1017.59 1017.54 1017.47 1017.38 1017.29 1017.20 1017.13 1017.09 1017.09 1017.12 1017.18 1017.25 1017.32 1017.37 1017.39 1017.35 1017.26 1017.11 1016.91 1016.70 1016.47 1016.27 1016.10 1016.01 1015.99 1016.05 1016.19 1016.41 1016.69 1017.01 1017.35 1017.70 1018.05 1018.39 1018.71 1019.02
1018.93 1018.75 1018.60 1018.48 1018.37 1018.26 1018.15 1018.02 1017.87 1017.70 1017.52 1017.34 1017.18 1017.05 1016.96 1016.91 1016.91 1016.93 1016.98 1017.02 1017.03 1017.00 1016.91 1016.75 1016.53 1016.26 1015.95 1015.64 1015.34 1015.10 1014.93 1014.86 1014.88 1015.00 1015.21 1015.50 1015.85 1016.23 1016.63 1017.03 1017.41 1017.78 1018.14
1019.81 1019.63 1019.46 1019.30 1019.14 1018.97 1018.78 1018.57 1018.34 1018.09 1017.84 1017.59 1017.36 1017.17 1017.02 1016.92 1016.86 1016.83 1016.82 1016.80 1016.76 1016.67 1016.51 1016.28 1015.99 1015.64 1015.25 1014.86 1014.49 1014.18 1013.94 1013.79 1013.76 1013.83 1014.00 1014.26 1014.58 1014.96 1015.36 1015.77 1016.19 1016.59 1016.99
1020.62 1020.43 1020.25 1020.07 1019.88 1019.67 1019.43 1019.17 1018.89 1018.59 1018.29 1017.99 1017.71 1017.46 1017.26 1017.09 1016.97 1016.87 1016.79 1016.70 1016.58 1016.41 1016.18 1015.89 1015.53 1015.12 1014.68 1014.23 1013.81 1013.43 1013.12 1012.90 1012.79 1012.78 1012.87 1013.05 1013.30 1013.61 1013.97 1014.35 1014.75 1015.17 1015.59
1021.30 1021.12 1020.93 1020.73 1020.51 1020.28 1020.03 1019.74 1019.44 1019.12 1018.79 1018.46 1018.15 1017.86 1017.61 1017.39 1017.19 1017.02 1016.86 1016.69 1016.49 1016.25 1015.96 1015.62 1015.22 1014.77 1014.30 1013.81 1013.35 1012.91 1012.55 1012.25 1012.04 1011.93 1011.90 1011.96 1012.09 1012.30 1012.55 1012.86 1013.20 1013.59 1014.01
1021.85 1021.66 1021.45 1021.24 1021.02 1020.77 1020.51 1020.23 1019.92 1019.60 1019.27 1018.94 1018.62 1018.30 1018.01 1017.73 1017.48 1017.24 1017.00 1016.75 1016.48 1016.18 1015.85 1015.47 1015.04 1014.58 1014.10 1013.60 1013.12 1012.66 1012.23 1011.87 1011.56 1011.32 1011.15 1011.06 1011.04 1011.09 1011.21 1011.39 1011.64 1011.96 1012.35
1022.26 1022.06 1021.84 1021.61 1021.38 1021.14 1020.88 1020.61 1020.32 1020.02 1019.70 1019.38 1019.05 1018.72 1018.39 1018.08 1017.77 1017.46 1017.15 1016.84 1016.51 1016.16 1015.79 1015.39 1014.97 1014.52 1014.05 1013.57 1013.09 1012.61 1012.15 1011.72 1011.31 1010.95 1010.64 1010.38 1010.19 1010.06 1010.01 1010.05 1010.18 1010.41 1010.74
1022.59 1022.36 1022.12 1021.88 1021.64 1021.40 1021.15 1020.90 1020.63 1020.35 1020.06 1019.74 1019.42 1019.07 1018.72 1018.37 1018.00 1017.63 1017.27 1016.89 1016.51 1016.13 1015.74 1015.34 1014.93 1014.51 1014.07 1013.62 1013.16 1012.69 1012.21 1011.72 1011.24 1010.77 1010.32 1009.90 1009.54 1009.24 1009.03 1008.91 1008.91 1009.03 1009.28
1022.87 1022.62 1022.36 1022.11 1021.87 1021.63 1021.39 1021.15 1020.91 1020.64 1020.36 1020.06 1019.72 1019.37 1018.98 1018.58 1018.17 1017.74 1017.31 1016.88 1016.46 1016.05 1015.65 1015.25 1014.87 1014.48 1014.08 1013.67 1013.24 1012.79 1012.30 1011.78 1011.24 1010.68 1010.11 1009.57 1009.06 1008.61 1008.25 1008.00 1007.88 1007.91 1008.08
1023.15 1022.89 1022.63 1022.38 1022.13 1021.90 1021.67 1021.44 1021.20 1020.95 1020.66 1020.35 1020.00 1019.61 1019.19 1018.73 1018.26 1017.77 1017.28 1016.80 1016.33 1015.89 1015.48 1015.09 1014.72 1014.36 1014.00 1013.63 1013.24 1012.80 1012.32 1011.79 1011.21 1010.59 1009.95 1009.31 1008.69 1008.14 1007.67 1007.32 1007.11 1007.05 1007.16
1023.47 1023.22 1022.96 1022.72 1022.49 1022.26 1022.04 1021.81 1021.57 1021.31 1021.00 1020.66 1020.27 1019.84 1019.36 1018.84 1018.30 1017.74 1017.19 1016.65 1016.13 1015.66 1015.22 1014.83 1014.46 1014.13 1013.80 1013.46 1013.09 1012.68 1012.21 1011.67 1011.08 1010.43 1009.75 1009.05 1008.37 1007.75 1007.22 1006.81 1006.54 1006.44 1006.51
Thickness
5713 5711 5708 5706 5704 5703 5701 5700 5699 5699 5699 5698 5697 5696 5696 5695 5693 5691 5690 5690 5689 5688 5688 5687 5685 5685 5683 5683 5682 5680 5677 5674 5665 5662 5663 5662 5660 5658 5655 5654 5651 5649 5646
5712 5710 5707 5705 5703 5701 5700 5699 5699 5699 5699 5698 5697 5696 5695 5694 5692 5691 5689 5688 5687 5686 5686 5685 5683 5683 5681 5680 5678 5676 5673 5671 5666 5659 5658 5658 5656 5655 5654 5652 5649 5646 5643
5711 5708 5706 5704 5702 5701 5700 5699 5699 5698 5697 5697 5696 5694 5693 5693 5691 5690 5688 5687 5686 5685 5684 5682 5681 5680 5677 5676 5674 5672 5671 5670 5665 5660 5656 5655 5654 5653 5650 5649 5647 5644 5641
5707 5705 5703 5702 5702 5700 5699 5698 5698 5697 5696 5694 5694 5693 5692 5691 5690 5688 5687 5685 5684 5683 5682 5680 5679 5677 5675 5673 5672 5670 5668 5665 5662 5657 5654 5651 5650 5649 5647 5643 5640 5639 5637
5705 5703 5702 5702 5701 5699 5698 5696 5696 5695 5694 5693 5691 5690 5690 5689 5687 5685 5684 5684 5682 5680 5679 5677 5676 5674 5673 5672 5670 5666 5664 5661 5657 5654 5650 5647 5645 5643 5641 5640 5637 5635 5633
5703 5701 5701 5700 5698 5696 5695 5694 5693 5692 5691 5689 5688 5687 5686 5685 5684 5683 5682 5681 5680 5678 5676 5674 5673 5671 5670 5668 5666 5664 5662 5658 5654 5651 5647 5643 5641 5641 5640 5638 5634 5631 5627
5701 5700 5698 5697 5695 5694 5693 5691 5689 5688 5687 5685 5684 5683 5681 5680 5680 5680 5679 5678 5677 5676 5674 5672 5671 5669 5667 5664 5662 5660 5658 5656 5654 5650 5645 5642 5640 5639 5637 5634 5631 5628 5623
5699 5697 5696 5695 5692 5691 5689 5687 5686 5685 5683 5682 5680 5679 5678 5677 5677 5676 5675 5674 5673 5673 5672 5670 5668 5665 5664 5662 5659 5655 5653 5651 5650 5648 5645 5642 5640 5638 5636 5633 5629 5625 5622
5697 5696 5694 5693 5690 5688 5686 5684 5683 5682 5680 5679 5678 5676 5675 5673 5673 5673 5671 5670 5669 5668 5668 5667 5665 5663 5661 5659 5655 5651 5648 5646 5645 5644 5642 5639 5637 5634 5632 5628 5624 5619 5614
5697 5695 5694 5692 5688 5686 5684 5682 5681 5679 5677 5676 5674 5673 5672 5670 5670 5669 5668 5667 5664 5663 5662 5662 5661 5659 5657 5655 5652 5649 5644 5642 5641 5639 5636 5634 5631 5629 5626 5623 5620 5615 5610
5697 5694 5692 5690 5688 5685 5682 5680 5678 5676 5674 5672 5671 5670 5669 5668 5667 5665 5664 5663 5662 5660 5658 5656 5655 5654 5653 5651 5649 5646 5643 5641 5638 5635 5631 5629 5626 5624 5621 5618 5616 5612 5606
5694 5691 5689 5687 5686 5684 5680 5678 5676 5673 5670 5668 5667 5665 5665 5665 5664 5662 5661 5660 5659 5657 5654 5652 5650 5649 5648 5646 5644 5642 5640 5638 5634 5630 5626 5623 5620 5617 5615 5613 5610 5607 5603
5689 5686 5685 5683 5682 5681 5677 5674 5672 5670 5667 5665 5663 5661 5660 5660 5659 5658 5657 5656 5655 5652 5650 5648 5646 5644 5642 5640 5638 5637 5635 5632 5628 5624 5621 5618 5616 5613 5610 5606 5603 5600 5596
5685 5682 5681 5679 5677 5676 5674 5672 5669 5667 5665 5663 5661 5659 5658 5657 5655 5653 5651 5649 5648 5646 5643 5641 5640 5638 5636 5634 5633 5631 5628 5626 5623 5620 5617 5614 5611 5608 5604 5600 5596 5592 5587
5681 5679 5677 5675 5673 5671 5670 5668 5667 5666 5665 5662 5660 5658 5655 5653 5653 5652 5649 5646 5644 5641 5638 5636 5633 5631 5629 5627 5626 5625 5623 5621 5618 5616 5613 5609 5605 5602 5598 5595 5590 5586 5580
5676 5675 5673 5670 5668 5667 5665 5662 5661 5661 5661 5660 5659 5657 5655 5653 5651 5649 5646 5644 5641 5638 5635 5632 5630 5627 5625 5623 5621 5619 5618 5616 5614 5612 5608 5604 5601 5597 5592 5589 5585 5580 5575
5672 5671 5669 5667 5665 5663 5661 5658 5655 5653 5654 5653 5653 5652 5650 5648 5646 5643 5641 5638 5636 5634 5631 5628 5626 5624 5622 5620 5618 5616 5614 5612 5610 5607 5603 5599 5596 5592 5587 5583 5578 5574 5569
5669 5668 5666 5664 5662 5661 5659 5657 5655 5651 5648 5646 5645 5645 5644 5642 5640 5637 5634 5632 5628 5627 5626 5624 5622 5620 5618 5617 5614 5612 5610 5607 5604 5601 5597 5594 5590 5586 5582 5577 5572 5568 5563
5664 5663 5662 5661 5659 5658 5656 5654 5652 5649 5646 5643 5640 5638 5637 5635 5633 5630 5628 5626 5624 5621 5620 5619 5618 5616 5614 5612 5610 5607 5604 5601 5598 5595 5591 5588 5584 5580 5575 5571 5566 5562 5556
5660 5660 5659 5658 5656 5654 5652 5650 5648 5646 5643 5640 5637 5634 5630 5628 5625 5622 5621 5621 5619 5617 5616 5614 5612 5610 5608 5606 5603 5600 5597 5594 5591 5588 5584 5581 5577 5573 5568 5564 5559 5553 5548
5655 5655 5654 5653 5652 5651 5649 5647 5645 5643 5640 5637 5634 5631 5628 5626 5623 5620 5617 5617 5615 5613 5611 5608 5606 5604 5601 5599 5596 5593 5590 5587 5584 5580 5577 5573 5570 5565 5561 5556 5551 5546 5540
5651 5650 5650 5649 5648 5647 5645 5644 5642 5639 5637 5633 5630 5626 5623 5621 5619 5616 5614 5612 5610 5608 5606 5603 5600 5597 5595 5592 5589 5586 5583 5579 5576 5572 5569 5565 5562 5557 5553 5547 5542 5536 5531
5646 5645 5644 5644 5643 5642 5640 5639 5637 5635 5632 5629 5626 5621 5617 5616 5614 5611 5609 5607 5604 5602 5599 5596 5593 5591 5588 5585 5582 5579 5576 5572 5568 5565 5561 5557 5553 5548 5543 5539 5533 5528 5522
5640 5640 5639 5638 5638 5636 5635 5633 5632 5630 5627 5624 5620 5617 5613 5611 5608 5606 5604 5601 5598 5595 5592 5589 5586 5583 5580 5577 5574 5571 5567 5564 5560 5556 5552 5548 5544 5540 5535 5530 5525 5520 5514
5633 5633 5633 5632 5631 5630 5629 5627 5625 5623 5620 5618 5615 5612 5608 5605 5602 5600 5597 5594 5591 5588 5585 5582 5578 5575 5572 5568 5565 5562 5558 5555 5551 5547 5543 5539 5535 5530 5526 5520 5515 5510 5505
5626 5626 5625 5625 5624 5623 5621 5620 5618 5616 5614 5612 5609 5606 5602 5599 5596 5593 5589 5586 5583 5580 5576 5573 5570 5567 5563 5560 5556 5553 5549 5546 5542 5538 5534 5530 5525 5521 5516 5511 5506 5501 5496